CMP9819 KBFI-MPTO

Flight info

Callsign CMP9819
Flight time N/A
Altitude 39000
Route TAOMA J5 SUMMA J54 BOI DCT PIH J20 OCS DCT RLG DCT DVV DCT HGO J52 LAA J168 SPS J58 FUZ DCT SBI A766 KEHLI UM782 OMIRO UN420 PELRA DCT MORLI OSUPA2C
Aircraft B38M/M-SDE1FGHILORVWXY/HB1

Departure

Time 2026-04-26 15:57
Airport King County International Airport - Boeing Field (KBFI)

Arrival

Time N/A
Airport Tocumen International Airport (MPTO)
Time Latitude Longitude Altitude Speed Heading
2026-04-26 15:50 47.53353 -122.30878 26 ft 1 kts 63°
2026-04-26 15:50 47.53351 -122.30883 28 ft 1 kts 63°
2026-04-26 15:50 47.53348 -122.30891 27 ft 1 kts 62°
2026-04-26 15:51 47.53346 -122.30899 26 ft 1 kts 85°
2026-04-26 15:51 47.53347 -122.30907 26 ft 1 kts 113°
2026-04-26 15:51 47.53351 -122.30920 29 ft 2 kts 143°
2026-04-26 15:51 47.53359 -122.30926 27 ft 0 kts 146°
2026-04-26 15:53 47.53354 -122.30921 25 ft 5 kts 146°
2026-04-26 15:53 47.53309 -122.30856 27 ft 2 kts 90°
2026-04-26 15:54 47.53322 -122.30821 26 ft 8 kts 57°
2026-04-26 15:54 47.53325 -122.30816 26 ft 0 kts 56°
2026-04-26 15:54 47.53326 -122.30812 27 ft 2 kts 57°
2026-04-26 15:54 47.53357 -122.30729 27 ft 11 kts 58°
2026-04-26 15:55 47.53402 -122.30625 29 ft 13 kts 27°
2026-04-26 15:55 47.53524 -122.30689 29 ft 26 kts 332°
2026-04-26 15:55 47.53711 -122.30849 31 ft 34 kts 330°
2026-04-26 15:55 47.53925 -122.31009 33 ft 35 kts 335°
2026-04-26 15:56 47.54036 -122.31089 31 ft 10 kts 315°
2026-04-26 15:56 47.54037 -122.31127 31 ft 1 kts 204°
2026-04-26 15:56 47.54034 -122.31123 31 ft 1 kts 150°
2026-04-26 15:56 47.53838 -122.30954 34 ft 70 kts 150°
2026-04-26 15:57 47.53442 -122.30466 31 ft 54 kts 110°
2026-04-26 15:57 47.53313 -122.30330 31 ft 40 kts 156°
2026-04-26 15:57 47.52841 -122.29948 2103 ft 214 kts 153°
2026-04-26 15:57 47.51968 -122.29213 2321 ft 210 kts 142°